{"data":{"norad_id":60187,"epoch":"2026-09-20T05:36:31.730112Z","epoch_age_seconds":204454,"freshness":"STALE","line1":"1 60187U 24124E   26263.23370058 -.00002490  00000+0 -15715-4 0  9991","line2":"2 60187  53.1585 281.9123 0001221  61.1179 298.9961 15.69689056127096","mean_motion":15.69689056,"eccentricity":0.0001221,"inclination_deg":53.1585,"raan_deg":281.9123,"arg_perigee_deg":61.1179,"mean_anomaly_deg":298.9961,"bstar":-1.5715e-5,"rev_number":12709,"period_min":91.73791423822,"perigee_km":358.96398431533,"apogee_km":360.60938527916,"semimajor_km":6737.9236847972,"source":"CELESTRAK","updated_at":"2026-09-22T09:00:49.182312Z"}}